Flag for Canada Weather past 2 weeks in Montreal, Quebec, Canada

Now
61 °F

Passing clouds.


Feels Like: 61 °F
Forecast: 62 / 76 °F
Wind: 5 mph from West

Location: Montreal - Pierre Elliot Trudeau International Aiport

Current Time: Jul 26, 2014 at 7:17:32 AM

Latest Report: Jul 26, 2014 at 6:00 AM


Visibility: 15 mi

Pressure: 29.87 "Hg

Humidity: 83%

Dew point: 55 °F

Location of MontrealLocation

Historic Weather in Montreal — Graph

°F

Montreal temperature yesterday

Maximum temperature yesterday: 79 °F (at 4:00 PM)
Minimum temperature yesterday: 59 °F (at 5:00 AM)
Average temperature yesterday: 69 °F

Past Weeks' High & Low Weather Summary

 TemperatureHumidityPressure
High84 °F (Jul 21, 3:00 PM)94% (Jul 13, 1:00 PM)30.27 "Hg (Jul 13, 1:00 PM)
Low57 °F (Jul 11, 6:00 AM)39% (Jul 11, 3:00 PM)29.67 "Hg (Jul 13, 6:00 PM)
Average71 °F66%29.96 "Hg
* Reported Jul 11 6:00 AM — Jul 26 6:00 AM, Montreal, Weather by CustomWeather, © 2014

Note: Actual official high and low records may vary slightly from our data, if they occured in-between our weather recording intervals... More about our weather records

Advertising

Montreal weather history for previous 24 hours

 ConditionsComfort  
Time TempWeatherWind HumidityBarometerVisibility
6:00 AM
Jul 26
61 °FPassing clouds.5 mph83%29.87 "Hg15 mi
5:00 AM61 °FPassing clouds.7 mph83%29.87 "Hg15 mi
4:00 AM63 °FPassing clouds.12 mph73%29.87 "Hg15 mi
3:00 AM64 °FPassing clouds.13 mph68%29.87 "Hg15 mi
2:00 AM66 °FPassing clouds.15 mph68%29.88 "Hg15 mi
1:00 AM66 °FClear.15 mph64%29.88 "Hg15 mi
12:00 AM68 °FClear.18 mph60%29.89 "Hg15 mi
11:00 PM
Jul 25
68 °FClear.13 mph60%29.89 "Hg15 mi
10:00 PM70 °FPassing clouds.18 mph57%29.89 "Hg15 mi
9:00 PM72 °FPassing clouds.17 mph57%29.88 "Hg10 mi
8:00 PM73 °FPassing clouds.17 mph53%29.87 "Hg10 mi
7:00 PM75 °FScattered clouds.18 mph47%29.87 "Hg15 mi
6:00 PM75 °FScattered clouds.16 mph54%29.86 "Hg15 mi
5:00 PM77 °FPartly sunny.22 mph54%29.86 "Hg15 mi
4:00 PM79 °FPartly sunny.18 mph51%29.88 "Hg15 mi
3:00 PM77 °FPartly sunny.18 mph51%29.90 "Hg15 mi
2:00 PM75 °FPartly sunny.16 mph57%29.91 "Hg15 mi
1:00 PM73 °FPartly sunny.18 mph57%29.93 "Hg15 mi
12:00 PM72 °FScattered clouds.16 mph65%29.93 "Hg15 mi
11:00 AM72 °FPartly sunny.16 mph61%29.93 "Hg15 mi
10:00 AM68 °FPartly sunny.10 mph64%29.95 "Hg15 mi
9:00 AM68 °FBroken clouds.13 mph69%29.95 "Hg15 mi
8:00 AM64 °FPartly sunny.9 mph73%29.95 "Hg15 mi
7:00 AM61 °FPartly sunny.10 mph83%29.93 "Hg15 mi
Weather by CustomWeather, © 2014

See weather overviewHow to use our weather pages